[Iaude] MPEC J36: 2024 JL [a=1.93,e=0.74,i=12.9,H=21.1]
    mpec at cfa.harvard.edu 
    mpec at cfa.harvard.edu
       
    Fri May  3 06:27:51 EDT 2024
    
    
  
M.P.E.C. 2024-J36                                   Issued 2024 May 3, 10:26 UT
     The Minor Planet Electronic Circulars contain information on unusual
         minor planets, routine data on comets and natural satellites,
         and occasional editorial announcements.  They are published
    on behalf of Division F of the International Astronomical Union by the
          Minor Planet Center, Smithsonian Astrophysical Observatory,
                          Cambridge, MA 02138, U.S.A.
			  
             Prepared using the Tamkin Foundation Computer Network
                              MPC at CFA.HARVARD.EDU
            URL https://www.minorplanetcenter.net/    ISSN 1523-6714
                                    2024 JL                                     
Observations:
     K24J00L*1C2024 05 01.39767716 19 37.607+24 01 42.17         20.88GVEJ036G96
     K24J00L 1C2024 05 01.40285616 19 35.868+24 01 31.80         21.08GVEJ036G96
     K24J00L 1C2024 05 01.40804116 19 34.154+24 01 21.29         20.84GVEJ036G96
     K24J00L 1C2024 05 01.41322516 19 32.502+24 01 09.84         20.74GVEJ036G96
     K24J00L KC2024 05 01.46605316 19 15.290+23 59 16.40               VEJ036I52
     K24J00L KC2024 05 01.46709816 19 14.941+23 59 14.10         20.97GVEJ036I52
     K24J00L KC2024 05 01.46815016 19 14.617+23 59 12.05         20.96GVEJ036I52
     K24J00L KC2024 05 01.46919816 19 14.286+23 59 09.82         20.59GVEJ036I52
     K24J00L KC2024 05 02.23222516 15 18.03 +23 32 08.1          20.6 GXEJ036858
     K24J00L KC2024 05 02.23860616 15 16.02 +23 31 54.3          20.5 GXEJ036858
     K24J00L KC2024 05 02.24558716 15 13.83 +23 31 39.6          20.5 GXEJ036858
     K24J00L mC2024 05 02.24841716 15 13.043+23 31 34.32         20.58GVEJ036I52
     K24J00L mC2024 05 02.25021116 15 12.539+23 31 30.94         21.21GVEJ036I52
     K24J00L mC2024 05 02.25265316 15 11.740+23 31 25.14         21.26GVEJ036I52
     K24J00L !C2024 05 02.43264 16 14 15.49 +23 25 04.8          20.1 GVEJ036673
     K24J00L !C2024 05 02.43441 16 14 14.93 +23 25 01.0                VEJ036673
     K24J00L !C2024 05 03.41837 16 09 21.82 +22 50 13.8          20.5 GVEJ036673
     K24J00L !C2024 05 03.42117 16 09 20.97 +22 50 07.9          20.4 GVEJ036673
Observer details:
673 Table Mountain Observatory, Wrightwood.  Observer J. Pittichova.  1.0-m
    f/15 reflector + CCD.
858 Tebbutt Observatory, Edgewood.  Observer F. B. Zoltowski.  0.51-m f/8.1
    Schmidt-Cassegrain + CCD.
G96 Mt. Lemmon Survey.  Observer J. B. Fazekas.  Measurers T. Beuden, V. F.
    Carvajal, D. Fay, J. B. Fazekas, D. C. Fuls, A. R. Gibbs, A. D. Grauer, H.
    Groeller, J. K. Hogan, R. A. Kowalski, S. M. Larson, G. J. Leonard, D.
    Rankin, R. L. Seaman, F. C. Shelly, K. W. Wierzchos.  1.5-m reflector +
    10K CCD.
I52 Steward Observatory, Mt. Lemmon Station.  Observers V. F. Carvajal, G. J.
    Leonard.  Measurers T. Beuden, V. F. Carvajal, D. Fay, J. B. Fazekas, D.
    C. Fuls, A. R. Gibbs, A. D. Grauer, H. Groeller, J. K. Hogan, R. A.
    Kowalski, S. M. Larson, G. J. Leonard, D. Rankin, R. L. Seaman, F. C.
    Shelly, K. W. Wierzchos.  1.0-m prime focus + CCD.
Orbital elements:
2024 JL                                                  Earth MOID = 0.2195 AU
Epoch 2024 Mar. 31.0 TT = JDT 2460400.5                 MPC                     
M  14.24534              (2000.0)            P               Q                  
n   0.36716946     Peri.  356.75481     -0.31088371     -0.92726283             
a   1.9314865      Node   111.27696     +0.87698341     -0.36448609             
e   0.7379575      Incl.   12.93896     +0.36640335     +0.08563607             
P   2.68           H   21.13          G   0.15           U   9                  
Residuals in seconds of arc
240501 G96  0.5+  0.7-    240501 I52  0.1+  0.0     240502 I52  0.3+  0.2+
240501 G96  0.1-  0.0     240501 I52  0.2+  0.0     240502 I52  0.1-  0.5-
240501 G96  0.4-  0.5+    240502 858  0.1-  0.3+    240502 673  0.3+  0.2+
240501 G96  0.1+  0.1+    240502 858  0.2-  0.2-    240502 673  0.2+  0.1+
240501 I52  0.0   0.2-    240502 858  0.3-  0.2-    240503 673  0.0   0.1+
240501 I52  0.2-  0.2-    240502 I52  0.4-  0.2-    240503 673  0.2-  0.2+
Ephemeris:
2024 JL                  a,e,i = 1.93, 0.74, 13                  q = 0.5061
Date    TT    R. A. (2000) Decl.     Delta      r    Elong.  Phase     V
2024 04 03    20 20 08.9 +32 10 00   0.2732  0.9326    68.0    96.2    21.6
...
2024 04 18    17 52 20.0 +31 06 36   0.3013  1.1312   107.4    57.9    20.9
...
2024 04 26    16 51 36.7 +27 09 33   0.3434  1.2327   124.3    42.4    20.9
...
2024 05 02    16 16 28.9 +23 40 29   0.3866  1.3065   134.1    33.7    21.1
2024 05 03    16 11 25.5 +23 05 07   0.3948  1.3186   135.4    32.5    21.1
2024 05 04    16 06 34.8 +22 29 49   0.4032  1.3307   136.7    31.3    21.1
...
2024 05 10    15 41 37.1 +19 02 32   0.4590  1.4018   142.4    26.0    21.4
...
2024 05 18    15 17 37.5 +14 47 57   0.5467  1.4935   145.2    22.7    21.8
...
2024 06 02    14 52 42.8 +08 13 09   0.7469  1.6561   139.8    23.3    22.7
A. U. Tomatic                (C) Copyright 2024 MPC           M.P.E.C. 2024-J36
    
    
More information about the Iaude
mailing list